Lid_Strength_Index
5 5 4 4 3 4 5 5 5 5 5 5 5 5 4 4 3 3 3 2 -0 0 1 1 2 2 2 2 2 2 2 2 3 2 3 3 3 3 3 4 4 4 4
5 5 5 5 5 5 6 6 6 6 6 6 6 6 6 6 5 5 5 3 1 0 1 1 1 2 2 2 3 3 3 3 3 3 3 3 4 4 4 4 4 5 5
5 6 6 6 6 6 7 7 8 8 8 7 7 7 7 7 7 7 7 6 3 1 0 1 1 2 2 2 3 2 3 3 3 4 4 4 4 4 5 5 5 5 5
4 4 5 5 4 5 6 7 7 7 7 7 7 8 8 8 8 8 8 8 7 6 2 1 2 2 2 2 2 2 3 3 3 3 4 4 4 5 5 5 6 6 6
3 4 5 5 4 5 6 7 8 8 8 9 8 9 9 9 9 9 9 9 9 8 8 4 2 2 2 2 2 2 3 3 3 4 4 4 4 5 5 6 6 7 7
3 4 4 5 5 5 6 7 8 9 10 9 10 11 11 11 11 10 10 10 10 10 9 9 8 6 2 2 2 2 2 3 4 4 5 5 5 5 6 6 7 7 8
3 4 4 5 5 5 5 7 9 10 11 11 12 14 14 14 14 12 12 11 11 11 11 10 10 9 7 2 2 2 2 2 3 4 5 5 5 6 6 6 7 7 8
2 3 4 5 6 6 6 7 9 11 11 11 11 13 12 12 14 13 13 12 12 11 12 11 11 10 9 8 6 3 2 2 3 4 4 5 5 6 6 6 7 7 8
2 2 3 4 5 5 6 7 8 9 11 13 12 10 14 13 14 15 14 14 12 12 11 12 12 12 10 10 7 5 3 3 3 3 4 5 5 5 6 6 7 7 8
2 2 2 3 4 5 6 7 8 7 8 11 11 11 12 12 13 12 15 15 14 14 12 11 12 11 11 11 10 9 7 4 3 4 4 5 5 6 6 7 7 7 7
2 2 2 3 3 4 4 6 7 8 8 8 11 12 10 12 13 14 11 13 17 14 13 12 11 11 12 11 11 10 7 6 4 4 4 5 5 6 7 7 7 7 8
3 2 2 2 3 3 4 4 6 7 7 7 9 8 10 12 11 14 13 11 16 15 14 13 12 12 11 11 11 10 9 6 5 6 6 6 6 7 7 7 8 8 8
6 4 3 3 2 2 3 4 5 6 7 7 7 9 8 9 8 10 10 9 14 14 15 14 14 13 12 12 12 11 10 8 6 6 7 7 7 8 8 8 8 8 8
5 4 3 3 3 2 3 3 4 5 6 6 6 6 7 7 7 7 8 9 11 14 15 14 14 14 13 12 12 11 11 9 7 7 8 8 8 9 9 9 8 9 8
6 6 5 3 2 2 2 3 4 5 5 6 6 6 6 6 6 7 7 8 8 9 9 14 14 14 14 13 13 12 13 11 8 8 8 9 9 9 9 9 9 9 8
7 7 7 6 5 3 2 2 2 4 5 5 6 6 6 6 6 6 7 8 8 8 10 8 13 14 14 14 13 13 14 12 11 10 10 9 9 9 9 9 9 9 9
8 8 8 8 7 7 6 5 4 3 4 5 6 6 7 6 6 7 7 8 9 9 10 8 13 14 15 14 14 14 14 14 14 11 11 10 9 9 9 10 9 9 9
9 9 9 9 9 8 8 8 7 6 6 6 6 6 6 6 7 6 7 9 9 9 10 10 12 16 16 15 15 15 15 14 15 12 11 10 10 10 10 10 9 9 9
10 11 11 10 9 9 7 7 6 6 6 6 6 7 7 7 8 8 8 9 10 10 10 11 11 16 16 15 16 16 15 15 15 14 11 11 10 10 10 10 10 10 10
11 12 12 12 12 11 9 9 9 7 7 6 6 6 7 8 8 8 9 9 10 11 12 12 15 17 16 16 16 17 17 16 17 15 14 13 12 11 11 10 10 11 11
12 13 13 13 13 12 10 10 10 9 9 8 9 9 9 9 9 8 9 9 11 12 13 13 14 17 17 17 17 17 17 17 17 17 16 15 14 14 13 11 12 11 11
13 13 13 13 12 12 10 8 8 9 10 10 10 11 11 12 11 9 9 9 10 12 13 13 13 15 15 16 16 17 17 18 19 16 17 17 15 16 15 14 12 11 11
13 13 13 13 13 13 10 9 9 10 11 11 11 11 11 12 12 11 10 9 9 10 10 12 13 14 15 16 16 17 17 17 17 17 16 17 16 16 14 13 11 10 10
14 13 13 13 14 13 10 10 10 11 11 11 11 11 11 12 12 12 12 12 12 12 11 11 13 14 14 15 15 15 16 16 17 16 15 17 16 15 14 14 11 10 11
14 14 13 13 14 14 11 10 10 11 12 11 12 12 12 12 12 11 12 13 13 14 12 11 12 12 12 13 13 15 16 16 18 17 15 16 17 17 16 16 15 12 11
13 12 13 13 12 12 11 10 11 12 11 12 13 13 12 12 11 11 12 13 15 14 14 14 13 12 12 12 12 13 15 16 17 18 16 16 18 18 19 18 17 16 16